Location: Unspecified
(0.0000°N, 0.0000°E)
Time: 17:21:46
(UTC+00:00)

STARLINK 1061 - Pass Details

Date: 17 January 2020
Orbit: 549 x 551 km, 53.0° (Epoch: 22 January)

Event Time Altitude Azimuth Distance (km) Brightness Sun altitude
Rises 05:36:11 0° 183° (S) 2,725 7.4 -7.9°
Reaches altitude 10° 05:39:23 10° 157° (SSE) 1,827 7.0 -7.1°
Maximum altitude 05:41:34 14° 125° (SE) 1,584 7.4 -6.6°
Drops below altitude 10° 05:43:45 10° 93° (E) 1,820 7.7 -6.1°
Sets 05:46:55 0° 67° (ENE) 2,709 7.9 -5.4°
